Newark Heath, OH

7:59 PM EDT on May 23, 2018 (GMT -0400)
Newark Heath

Weather History for KVTA - July, 2013

Change the Weather History Date:

Tuesday, July 2, 2013

  Actual Average Record
Temperature  
Mean Temperature 74 °F -  
Max Temperature 82 °F 83 °F 97 °F (1966)
Min Temperature 66 °F 61 °F 45 °F (1988)
Cooling Degree Days 9    
Growing Degree Days 24 (Base 50)    
Moisture  
Dew Point 66 °F    
Average Humidity 81    
Maximum Humidity 97    
Minimum Humidity 58    
Precipitation  
Precipitation 0.17 in - - ()
Sea Level Pressure  
Sea Level Pressure 29.98 in    
Wind  
Wind Speed 3 mph (SE)    
Max Wind Speed 13 mph    
Max Gust Speed 17 mph    
Visibility 9 miles    
Events Rain    
Averages and records for this station are not official NWS values.
T = Trace of Precipitation, MM = Missing Value Source: NWS Daily Summary

Daily Weather History Graph

Daily Weather History Graph

Search for Another Location

Airport or City:

Astronomy

Jul. 02, 2013 Rise Set
Actual Time 6:05 AM EDT 9:02 PM EDT
Civil Twilight 5:32 AM EDT 9:35 PM EDT
Nautical Twilight 4:51 AM EDT 10:16 PM EDT
Astronomical Twilight 4:03 AM EDT 11:04 PM EDT
Moon 2:07 AM EDT (7/2) 4:15 PM EDT (7/2)
Length of Visible Light 16h 02m
Length of Day
14h 57m
Waning Crescent, 26% of the Moon is Illuminated
Jul 2
Waning Crescent
Jul 8
New
Jul 15
First Quarter
Jul 22
Full
Jul 29
Last Quarter

Hourly Weather History & Observations

Time (EDT) Temp. Heat Index Dew Point Humidity Pressure Visibility Wind Dir Wind Speed Gust Speed Precip Events Conditions
12:54 AM 68.0 °F - 64.0 °F 87% 29.93 in 10.0 mi Variable 3.5 mph - N/A   Mostly Cloudy
1:20 AM 68.0 °F - 64.4 °F 88% 29.94 in 10.0 mi East 3.5 mph - N/A   Overcast
1:54 AM 68.0 °F - 64.9 °F 90% 29.91 in 10.0 mi North 3.5 mph - N/A   Overcast
2:23 AM 68.0 °F - 64.4 °F 88% 29.94 in 10.0 mi Calm Calm - N/A   Overcast
2:54 AM 66.9 °F - 64.0 °F 90% 29.93 in 10.0 mi NNE 3.5 mph - N/A   Mostly Cloudy
3:47 AM 68.0 °F - 64.4 °F 88% 29.94 in 10.0 mi Calm Calm - N/A   Overcast
3:54 AM 68.0 °F - 64.9 °F 90% 29.93 in 10.0 mi Calm Calm - N/A   Overcast
4:54 AM 66.9 °F - 64.9 °F 93% 29.93 in 10.0 mi Calm Calm - N/A   Overcast
5:54 AM 68.0 °F - 64.9 °F 90% 29.95 in 10.0 mi ENE 4.6 mph - N/A   Overcast
6:54 AM 68.0 °F - 64.9 °F 90% 29.97 in 10.0 mi ENE 4.6 mph - N/A   Overcast
7:11 AM 68.0 °F - 64.4 °F 88% 29.98 in 10.0 mi ENE 3.5 mph - N/A   Overcast
7:44 AM 68.0 °F - 64.4 °F 88% 29.99 in 10.0 mi ESE 3.5 mph - N/A   Overcast
7:54 AM 68.0 °F - 66.0 °F 93% 29.98 in 10.0 mi Calm Calm - N/A   Overcast
8:54 AM 71.1 °F - 64.9 °F 81% 29.99 in 10.0 mi Variable 3.5 mph - N/A   Mostly Cloudy
9:06 AM 71.6 °F - 64.4 °F 78% 30.00 in 10.0 mi East 6.9 mph - N/A   Overcast
9:15 AM 71.6 °F - 64.4 °F 78% 30.00 in 10.0 mi ESE 6.9 mph - N/A   Overcast
10:29 AM 73.4 °F - 64.4 °F 73% 30.02 in 10.0 mi Variable 4.6 mph - N/A   Mostly Cloudy
10:54 AM 73.9 °F - 66.0 °F 76% 30.01 in 10.0 mi SSE 4.6 mph - N/A   Mostly Cloudy
11:38 AM 75.2 °F - 64.4 °F 69% 30.03 in 10.0 mi Variable 4.6 mph - N/A   Scattered Clouds
11:54 AM 75.9 °F - 66.0 °F 71% 30.01 in 10.0 mi Variable 3.5 mph - N/A   Partly Cloudy
12:54 PM 79.0 °F - 66.0 °F 64% 30.01 in 10.0 mi South 6.9 mph - N/A   Partly Cloudy
1:54 PM 80.1 °F 82.1 °F 66.0 °F 62% 30.00 in 10.0 mi Variable 3.5 mph - N/A   Scattered Clouds
2:54 PM 80.1 °F 82.3 °F 66.9 °F 64% 30.00 in 10.0 mi SE 6.9 mph - N/A   Mostly Cloudy
3:54 PM 80.1 °F 82.3 °F 66.9 °F 64% 29.99 in 10.0 mi South 6.9 mph - N/A   Mostly Cloudy
4:54 PM 82.9 °F 85.4 °F 66.9 °F 58% 29.98 in 10.0 mi South 5.8 mph - N/A   Mostly Cloudy
5:38 PM 75.2 °F - 69.8 °F 83% 30.01 in 1.8 mi South 12.7 mph 17.3 mph 0.13 in Rain Heavy Rain
5:49 PM 73.4 °F - 69.8 °F 88% 30.01 in 3.0 mi SW 5.8 mph - 0.17 in Rain Light Rain
5:54 PM 73.9 °F - 70.0 °F 87% 29.99 in 10.0 mi SW 3.5 mph - 0.17 in   Overcast
6:54 PM 79.0 °F - 70.0 °F 74% 29.99 in 10.0 mi South 5.8 mph - N/A   Partly Cloudy
7:54 PM 79.0 °F - 68.0 °F 69% 30.00 in 10.0 mi South 3.5 mph - N/A   Clear
8:54 PM 77.0 °F - 69.1 °F 76% 30.01 in 10.0 mi Calm Calm - N/A   Clear
9:54 PM 72.0 °F - 69.1 °F 91% 30.02 in 10.0 mi Calm Calm - N/A   Clear
10:54 PM 71.1 °F - 68.0 °F 90% 30.04 in 6.0 mi Calm Calm - N/A   Clear
11:54 PM 70.0 °F - 69.1 °F 97% 30.03 in 6.0 mi Calm Calm - N/A   Clear